Flag for U.S.A. Weather past 2 weeks in Louisville, Kentucky, U.S.A.

Now
74 °F

Mostly cloudy.


Feels Like: 72 °F
Forecast: 77 / 91 °F
Wind: 3 mph from Southeast

Location: Standiford Field

Current Time: Aug 23, 2014 at 7:37:44 AM

Latest Report: Aug 23, 2014 at 6:56 AM


Visibility: 7 mi

Pressure: 29.98 "Hg

Humidity: 91%

Dew point: 71 °F

Location of LouisvilleLocation

Historic Weather in Louisville — Graph

°F

Louisville temperature yesterday

Maximum temperature yesterday: 90 °F (at 5:56 PM)
Minimum temperature yesterday: 74 °F (at 9:56 PM)
Average temperature yesterday: 82 °F

Past Weeks' High & Low Weather Summary

 TemperatureHumidityPressure
High90 °F (Aug 20, 2:56 PM)97% (Aug 17, 11:56 PM)30.08 "Hg (Aug 17, 11:56 PM)
Low60 °F (Aug 13, 6:56 AM)37% (Aug 15, 9:56 PM)29.79 "Hg (Aug 19, 4:56 PM)
Average76 °F76%29.94 "Hg
* Reported Aug 8 5:56 AM — Aug 23 5:56 AM, Louisville, Weather by CustomWeather, © 2014

Note: Actual official high and low records may vary slightly from our data, if they occured in-between our weather recording intervals... More about our weather records

Advertising

Louisville weather history for previous 24 hours

 ConditionsComfort  
Time TempWeatherWind HumidityBarometerVisibility
5:56 AM
Aug 23
74 °FPassing clouds.3 mph94%29.96 "Hg9 mi
4:56 AM75 °FMostly cloudy.No wind90%29.96 "Hg10 mi
3:56 AM75 °FOvercast.No wind90%29.96 "Hg10 mi
2:56 AM74 °FPartly cloudy.3 mph94%29.96 "Hg9 mi
1:56 AM75 °FPartly cloudy.No wind90%29.97 "Hg8 mi
12:56 AM75 °FPartly cloudy.No wind90%29.98 "Hg9 mi
11:56 PM
Aug 22
75 °FPassing clouds.3 mph88%29.98 "Hg10 mi
10:56 PM74 °FOvercast.3 mph91%30.00 "Hg10 mi
9:56 PM74 °FLight rain. Mostly cloudy.6 mph91%29.99 "Hg10 mi
8:56 PM76 °FBroken clouds.12 mph85%29.99 "Hg10 mi
7:56 PM81 °FThunderstorms. Broken clouds.12 mph74%29.97 "Hg10 mi
6:56 PM89 °FBroken clouds.12 mph65%29.92 "Hg9 mi
5:56 PM90 °FBroken clouds.9 mph63%29.93 "Hg9 mi
4:56 PM88 °FCloudy.12 mph67%29.94 "Hg8 mi
3:56 PM89 °FMore clouds than sun.10 mph65%29.95 "Hg9 mi
2:56 PM86 °FMore clouds than sun.10 mph70%29.97 "Hg9 mi
1:56 PM88 °FCloudy.12 mph65%29.99 "Hg10 mi
12:56 PM86 °FMostly cloudy.10 mph67%30.00 "Hg10 mi
11:56 AM85 °FCloudy.8 mph70%30.01 "Hg10 mi
10:56 AM83 °FCloudy.9 mph74%30.02 "Hg10 mi
9:56 AM81 °FMore clouds than sun.9 mph77%30.01 "Hg10 mi
8:56 AM80 °FMore clouds than sun.6 mph79%30.00 "Hg10 mi
7:56 AM78 °FMostly cloudy.8 mph82%29.99 "Hg8 mi
Weather by CustomWeather, © 2014

See weather overviewHow to use our weather pages